TimeMST,TemperatureF,Dew PointF,Humidity,Sea Level PressureIn,VisibilityMPH,Wind Direction,Wind SpeedMPH,Gust SpeedMPH,PrecipitationIn,Events,Conditions,WindDirDegrees,DateUTC
12:35 AM,10.4,5.0,79,30.19,10.0,South,6.9,-,N/A,,Clear,180,2013-03-05 07:35:00
12:55 AM,12.2,6.8,79,30.20,10.0,SSE,6.9,-,N/A,,Clear,160,2013-03-05 07:55:00
1:15 AM,14.0,8.6,79,30.19,10.0,South,6.9,-,N/A,,Clear,170,2013-03-05 08:15:00
1:35 AM,12.2,6.8,79,30.19,10.0,South,4.6,-,N/A,,Clear,170,2013-03-05 08:35:00
1:55 AM,12.2,6.8,79,30.19,10.0,SSE,4.6,-,N/A,,Clear,150,2013-03-05 08:55:00
2:15 AM,10.4,6.8,85,30.19,10.0,Calm,Calm,-,N/A,,Clear,0,2013-03-05 09:15:00
2:35 AM,10.4,6.8,85,30.19,10.0,Calm,Calm,-,N/A,,Clear,0,2013-03-05 09:35:00
2:55 AM,10.4,5.0,79,30.18,10.0,WSW,5.8,-,N/A,,Clear,240,2013-03-05 09:55:00
3:15 AM,12.2,6.8,79,30.17,10.0,West,4.6,-,N/A,,Clear,260,2013-03-05 10:15:00
3:35 AM,12.2,6.8,79,30.17,10.0,Calm,Calm,-,N/A,,Clear,0,2013-03-05 10:35:00
4:15 AM,12.2,6.8,79,30.16,10.0,Calm,Calm,-,N/A,,Clear,0,2013-03-05 11:15:00
4:35 AM,10.4,5.0,79,30.16,10.0,Calm,Calm,-,N/A,,Clear,0,2013-03-05 11:35:00
4:55 AM,8.6,3.2,79,30.16,10.0,Calm,Calm,-,N/A,,Clear,0,2013-03-05 11:55:00
5:15 AM,8.6,5.0,85,30.16,10.0,Calm,Calm,-,N/A,,Clear,0,2013-03-05 12:15:00
6:35 AM,6.8,3.2,85,30.16,10.0,SSW,3.5,-,N/A,,Clear,200,2013-03-05 13:35:00
6:55 AM,8.6,6.8,92,30.16,10.0,Calm,Calm,-,N/A,,Clear,0,2013-03-05 13:55:00
7:15 AM,10.4,8.6,92,30.16,10.0,WSW,4.6,-,N/A,,Clear,250,2013-03-05 14:15:00
7:35 AM,12.2,6.8,79,30.16,10.0,Calm,Calm,-,N/A,,Clear,0,2013-03-05 14:35:00
7:55 AM,12.2,6.8,79,30.16,10.0,Calm,Calm,-,N/A,,Clear,0,2013-03-05 14:55:00
8:15 AM,15.8,8.6,73,30.17,10.0,Calm,Calm,-,N/A,,Clear,0,2013-03-05 15:15:00
8:35 AM,17.6,8.6,68,30.17,10.0,Calm,Calm,-,N/A,,Clear,0,2013-03-05 15:35:00
8:55 AM,19.4,8.6,63,30.16,10.0,Calm,Calm,-,N/A,,Clear,0,2013-03-05 15:55:00
9:35 AM,21.2,10.4,63,30.15,10.0,Calm,Calm,-,N/A,,Clear,0,2013-03-05 16:35:00
9:55 AM,24.8,10.4,54,30.14,10.0,Calm,Calm,-,N/A,,Clear,0,2013-03-05 16:55:00
10:15 AM,28.4,10.4,47,30.14,10.0,ESE,9.2,-,N/A,,Clear,120,2013-03-05 17:15:00
10:35 AM,28.4,10.4,47,30.13,10.0,SE,3.5,-,N/A,,Clear,130,2013-03-05 17:35:00
10:55 AM,30.2,10.4,44,30.12,10.0,SE,5.8,-,N/A,,Clear,140,2013-03-05 17:55:00
11:15 AM,33.8,8.6,35,30.11,10.0,SE,13.8,18.4,N/A,,Clear,130,2013-03-05 18:15:00
11:35 AM,33.8,8.6,35,30.10,10.0,SE,15.0,20.7,N/A,,Clear,130,2013-03-05 18:35:00
11:55 AM,35.6,8.6,33,30.09,10.0,SE,16.1,-,N/A,,Clear,130,2013-03-05 18:55:00
12:15 PM,35.6,8.6,33,30.08,10.0,SE,12.7,17.3,N/A,,Clear,140,2013-03-05 19:15:00
12:35 PM,35.6,6.8,30,30.07,10.0,SE,17.3,-,N/A,,Clear,130,2013-03-05 19:35:00
1:15 PM,35.6,8.6,33,30.06,10.0,SE,11.5,17.3,N/A,,Clear,140,2013-03-05 20:15:00
1:35 PM,35.6,10.4,35,30.05,10.0,SE,11.5,18.4,N/A,,Clear,130,2013-03-05 20:35:00
1:55 PM,35.6,8.6,33,30.04,10.0,SE,16.1,-,N/A,,Clear,140,2013-03-05 20:55:00
2:15 PM,35.6,8.6,33,30.04,10.0,SE,12.7,19.6,N/A,,Clear,130,2013-03-05 21:15:00
2:35 PM,37.4,8.6,30,30.03,10.0,SE,12.7,18.4,N/A,,Clear,140,2013-03-05 21:35:00
2:55 PM,37.4,8.6,30,30.03,10.0,SSE,12.7,18.4,N/A,,Clear,150,2013-03-05 21:55:00
3:15 PM,37.4,8.6,30,30.02,10.0,SE,13.8,-,N/A,,Clear,140,2013-03-05 22:15:00
3:35 PM,37.4,8.6,30,30.02,10.0,SSE,12.7,17.3,N/A,,Clear,150,2013-03-05 22:35:00
3:55 PM,37.4,8.6,30,30.01,10.0,SSE,12.7,16.1,N/A,,Clear,150,2013-03-05 22:55:00
4:15 PM,37.4,6.8,28,30.01,10.0,SE,11.5,-,N/A,,Clear,130,2013-03-05 23:15:00
4:35 PM,35.6,6.8,30,30.00,10.0,SE,10.4,-,N/A,,Clear,140,2013-03-05 23:35:00
4:55 PM,35.6,6.8,30,29.99,10.0,SE,11.5,-,N/A,,Clear,140,2013-03-05 23:55:00
5:15 PM,35.6,6.8,30,29.99,10.0,SE,8.1,-,N/A,,Clear,130,2013-03-06 00:15:00
5:35 PM,33.8,6.8,32,29.99,10.0,SE,6.9,-,N/A,,Clear,140,2013-03-06 00:35:00
6:15 PM,30.2,6.8,37,29.98,10.0,Calm,Calm,-,N/A,,Clear,0,2013-03-06 01:15:00
6:35 PM,30.2,6.8,37,29.99,10.0,Calm,Calm,-,N/A,,Clear,0,2013-03-06 01:35:00
6:55 PM,30.2,6.8,37,29.98,-9999.0,Calm,Calm,-,N/A,,Clear,0,2013-03-06 01:55:00
7:15 PM,28.4,8.6,43,29.98,10.0,Calm,Calm,-,N/A,,Clear,0,2013-03-06 02:15:00
7:35 PM,24.8,6.8,46,29.98,10.0,Calm,Calm,-,N/A,,Clear,0,2013-03-06 02:35:00
7:55 PM,26.6,8.6,47,29.99,10.0,Calm,Calm,-,N/A,,Clear,0,2013-03-06 02:55:00
8:15 PM,23.0,8.6,54,29.99,10.0,Calm,Calm,-,N/A,,Clear,0,2013-03-06 03:15:00
8:35 PM,23.0,6.8,50,29.98,10.0,SSE,4.6,-,N/A,,Clear,160,2013-03-06 03:35:00
8:55 PM,23.0,8.6,54,29.98,10.0,SSE,8.1,-,N/A,,Clear,150,2013-03-06 03:55:00
9:15 PM,23.0,8.6,54,29.98,10.0,South,5.8,-,N/A,,Clear,180,2013-03-06 04:15:00
10:15 PM,21.2,8.6,58,29.98,10.0,South,5.8,-,N/A,,Clear,180,2013-03-06 05:15:00
10:35 PM,21.2,10.4,63,29.97,10.0,South,3.5,-,N/A,,Clear,190,2013-03-06 05:35:00
10:55 PM,21.2,10.4,63,29.97,10.0,Calm,Calm,-,N/A,,Clear,0,2013-03-06 05:55:00
11:15 PM,24.8,10.4,54,29.97,10.0,Calm,Calm,-,N/A,,Clear,0,2013-03-06 06:15:00
11:35 PM,19.4,8.6,63,29.97,10.0,Calm,Calm,-,N/A,,Clear,0,2013-03-06 06:35:00
11:55 PM,21.2,8.6,58,29.96,10.0,South,3.5,-,N/A,,Clear,170,2013-03-06 06:55:00